Weather observations for the past three days for
Mount Holly, South Jersey Regional Airport
Imperial (Metric)
Date Time (edt) Wind (mph) Vis. (mi.) Weather Sky Cond. Temperature (ºF) Relative Humidity Wind Chill (°F) Heat Index (°F) Pressure Precipitation (in)
Air Dwpt 6 hour altimeter (in) sea level (mb) 1 hr 3 hr 6 hr
Max. Min.
22 10:54 Vrbl 3 10.00 Fair CLR 90 71.1 54% 96 30.02 1016.5
22 09:54 W 8 10.00 Fair CLR 86 70 59% 91 30.05 1017.3
22 08:54 W 7 10.00 Fair CLR 82.9 70 65% 87 30.06 1017.8
22 07:54 Vrbl 5 10.00 Fair CLR 79 70 79 72 74% 82 30.06 1017.9
22 06:54 Calm 10.00 Fair CLR 73.9 69.1 85% 30.07 1018.1
22 05:54 S 3 10.00 Fair CLR 72 68 87% 30.07 1018.3
22 04:54 Calm 10.00 Fair CLR 72 68 87% 30.07 1018.3
22 03:54 Calm 10.00 Fair CLR 72 68 87% 30.08 1018.4
22 02:54 S 3 10.00 Fair CLR 72 68 87% 30.08 1018.7
22 01:54 Calm 10.00 Fair CLR 73.9 68 89.1 73 82% 30.1 1019.3
22 00:54 Calm 10.00 Fair CLR 75.9 68 77% 77 30.11 1019.4
21 23:54 Vrbl 3 10.00 Fair CLR 77 68 74% 79 30.11 1019.4
21 22:54 Calm 10.00 Fair CLR 79 68 69% 81 30.1 1019.4
21 21:54 Vrbl 3 10.00 Fair CLR 81 68 65% 84 30.09 1019.0
21 20:54 Vrbl 3 10.00 Fair CLR 84.9 66 53% 87 30.08 1018.4
21 19:54 Vrbl 3 10.00 Fair CLR 89.1 64 96.1 89.1 43% 90 30.08 1018.4
21 18:54 SW 6 10.00 Fair CLR 91.9 64 40% 94 30.08 1018.4
21 17:54 Vrbl 5 10.00 Fair CLR 93.9 63 36% 95 30.07 1018.3
21 16:54 Vrbl 6 10.00 Fair CLR 93.9 63 36% 95 30.08 1018.6
21 15:54 Vrbl 6 10.00 Fair CLR 95 64 36% 97 30.09 1019.0
21 14:54 Vrbl 5 10.00 Fair CLR 95 66 39% 98 30.12 1019.7
21 13:54 W 7 10.00 Fair CLR 93 64.9 93.9 77 40% 95 30.14 1020.6
21 12:54 SW 3 10.00 Fair CLR 91 66 44% 94 30.17 1021.5
21 11:54 S 6 10.00 Fair CLR 90 66.9 47% 93 30.18 1022.0
21 10:54 Calm 10.00 Fair CLR 87.1 66.9 51% 90 30.19 1022.3
21 09:54 W 6 10.00 Fair CLR 82.9 66.9 59% 86 30.2 1022.5
21 08:54 W 9 10.00 Fair CLR 81 68 65% 84 30.21 1023.1
21 07:54 SW 6 10.00 Fair CLR 77 68 77 71.1 74% 79 30.23 1023.6
21 06:54 SW 3 10.00 Fair CLR 73 66.9 81% 30.22 1023.4
21 05:54 Calm 10.00 Fair CLR 71.1 66 84% 30.22 1023.4
21 04:54 Calm 10.00 Fair CLR 72 66 82% 30.22 1023.3
21 03:54 SW 5 10.00 Fair CLR 73.9 66 76% 30.23 1023.4
21 02:54 SW 6 10.00 Fair CLR 75 64.9 71% 77 30.23 1023.5
21 01:54 SW 5 10.00 Fair CLR 73 64.9 87.1 72 76% 30.24 1023.9
21 00:54 Calm 10.00 Fair CLR 72 64.9 79% 30.24 1024.0
20 23:54 Calm 10.00 Fair CLR 73.9 64.9 74% 30.25 1024.1
20 22:54 Calm 10.00 Fair CLR 77 64.9 66% 79 30.25 1024.2
20 21:54 Vrbl 3 10.00 Fair CLR 79 64.9 62% 81 30.25 1024.1
20 20:54 SW 5 10.00 Fair CLR 84 66 55% 86 30.23 1023.5
20 19:54 SW 5 10.00 Fair CLR 87.1 64.9 93 87.1 48% 89 30.22 1023.2
20 18:54 Vrbl 6 10.00 Fair CLR 90 64 42% 91 30.22 1023.2
20 17:54 SW 6 10.00 Fair CLR 91.9 64 40% 94 30.22 1023.3
20 16:54 Vrbl 5 10.00 Fair CLR 91.9 64.9 41% 94 30.24 1023.9
20 15:54 Calm 10.00 Fair CLR 93 64 38% 95 30.26 1024.6
20 14:54 SE 7 10.00 Fair CLR 91.9 64.9 41% 94 30.28 1025.2
20 13:54 Calm 10.00 Fair CLR 90 64.9 90 75.9 44% 92 30.3 1025.8
20 12:54 Vrbl 5 10.00 Fair CLR 89.1 66.9 48% 92 30.31 1026.4
20 11:54 Calm 10.00 Fair CLR 87.1 68 53% 91 30.33 1026.9
20 10:54 Vrbl 5 10.00 Fair CLR 84 68 59% 87 30.34 1027.4
20 09:54 SW 6 10.00 Fair CLR 82 66.9 60% 85 30.35 1027.5
20 08:54 W 6 10.00 Fair CLR 79 66.9 67% 81 30.35 1027.6
20 07:54 Vrbl 3 10.00 Fair CLR 75 66.9 75 64 76% 76 30.34 1027.3
20 06:54 Calm 10.00 Fair CLR 69.1 64.9 87% 30.34 1027.2
20 05:54 Calm 10.00 Fair CLR 64 62.1 93% 30.33 1026.8
20 04:54 Calm 10.00 Fair CLR 64.9 62.1 90% 30.33 1027.0
20 03:54 Calm 10.00 Fair CLR 66 63 90% 30.32 1026.7
20 02:54 Calm 10.00 Fair CLR 64.9 62.1 90% 30.31 1026.5
20 01:54 Calm 10.00 Fair CLR 66.9 63 82.9 66.9 87% 30.32 1026.8
20 00:54 Calm 10.00 Fair CLR 69.1 63 81% 30.33 1027.1
19 23:54 Calm 10.00 Fair CLR 71.1 63 76% 30.34 1027.3
19 22:54 Calm 10.00 Fair CLR 73 62.1 69% 30.35 1027.8
19 21:54 Vrbl 3 10.00 Fair CLR 75.9 62.1 62% 78 30.34 1027.2
19 20:54 S 5 10.00 Fair CLR 79 59 50% 80 30.31 1026.4
19 19:54 Vrbl 5 10.00 Fair CLR 82.9 59 93 82.9 44% 83 30.31 1026.3
19 18:54 S 6 10.00 Fair CLR 87.1 61 42% 87 30.3 1026.1
19 17:54 Vrbl 5 10.00 Fair CLR 90 63 41% 91 30.29 1025.5
19 16:54 SW 5 10.00 Fair CLR 91 64 41% 93 30.3 1025.9
19 15:54 SE 7 10.00 Fair CLR 91.9 63 38% 93 30.3 1026.1
19 14:54 Vrbl 3 10.00 Fair CLR 91.9 64.9 41% 94 30.31 1026.3
19 13:54 Vrbl 6 10.00 Fair CLR 90 66 90 73.9 45% 93 30.33 1026.9
19 12:54 Calm 10.00 Fair CLR 87.1 66.9 51% 90 30.34 1027.4
19 11:54 Calm 10.00 Fair CLR 84.9 66.9 55% 88 30.35 1027.8
Date Time (edt) Wind (mph) Vis. (mi.) Weather Sky Cond. Air Dwpt Max. Min. Relative Humidity Wind Chill (°F) Heat Index (°F) altimeter (in) sea level (mb) 1 hr 3 hr 6 hr
6 hour
Temperature (ºF) Pressure Precipitation (in)